This is the latest recevied weather packets stored in our database for station/object N4ASP-13. If no packets are shown the sender has not sent any weather packets the latest 1 day(s).
| Time | Temp. | Humidity | Pressure | Rain* | Wind** | Luminosity | Snow |
|---|---|---|---|---|---|---|---|
| 1778075687 | 15.56° C | 86% | 1013.4 hPa | 0 mm | - | 79 W/m² | - |
| 1778075568 | 15.56° C | 86% | 1013.5 hPa | 0 mm | - | 81 W/m² | - |
| 1778075509 | 15.56° C | 85% | 1013.7 hPa | 0 mm | - | 83 W/m² | - |
| 1778075387 | 15.56° C | 85% | 1013.7 hPa | 0 mm | - | 81 W/m² | - |
| 1778075328 | 15.56° C | 85% | 1013.8 hPa | 0 mm | - | 83 W/m² | - |
| 1778074724 | 15.56° C | 85% | 1013.4 hPa | 0 mm | - | 90 W/m² | - |
| 1778074603 | 15.56° C | 85% | 1013.2 hPa | 0 mm | - | 95 W/m² | - |
| 1778074484 | 15.56° C | 85% | 1013.2 hPa | 0 mm | - | 91 W/m² | - |
| 1778074423 | 15.56° C | 85% | 1013.3 hPa | 0 mm | - | 86 W/m² | - |
| 1778074297 | 15.56° C | 84% | 1013.4 hPa | 0 mm | - | 74 W/m² | - |
| 1778074054 | 15.56° C | 85% | 1013.3 hPa | 0 mm | - | 79 W/m² | - |
| 1778073749 | 15.56° C | 85% | 1013.2 hPa | 0 mm | - | 83 W/m² | - |
| 1778073684 | 15.56° C | 85% | 1013.2 hPa | 0 mm | - | 83 W/m² | - |
| 1778073623 | 15.56° C | 85% | 1013.2 hPa | 0 mm | - | 84 W/m² | - |
| 1778073562 | 15.56° C | 85% | 1013.3 hPa | 0 mm | - | 88 W/m² | - |
| 1778073442 | 15.56° C | 85% | 1013.3 hPa | 0 mm | - | 107 W/m² | - |
| 1778073132 | 15.56° C | 85% | 1013.5 hPa | 0 mm | - | 109 W/m² | - |
| 1778072946 | 15.56° C | 86% | 1013.4 hPa | 0 mm | - | 128 W/m² | - |
| 1778072826 | 15.56° C | 86% | 1013.3 hPa | 0 mm | - | 162 W/m² | - |
| 1778072763 | 15° C | 86% | 1013.3 hPa | 0 mm | - | 185 W/m² | - |
| 1778072700 | 15° C | 86% | 1013.4 hPa | 0 mm | - | 204 W/m² | - |
| 1778072520 | 15° C | 86% | 1013.4 hPa | 0 mm | - | 220 W/m² | - |
| 1778072453 | 15° C | 86% | 1013.4 hPa | 0 mm | - | 220 W/m² | - |
| 1778072390 | 15° C | 86% | 1013.7 hPa | 0 mm | - | 218 W/m² | - |
| 1778072330 | 15° C | 86% | 1013.7 hPa | 0 mm | - | 213 W/m² | - |
* Rain latest hour (hover to see other rain measurements)
** Current wind speed in m/s (hover to see current wind gust speed)